| time (UTC) | temp C | wind direction | speed KPH | gust KPH | rain 1hr cm | rain 24hr cm | rain mn cm | humidity % | barometer mb |
| 20260506081522 | 13 | 313 | 6.4 | 16.1 | 0.00 | 0.00 | 0.00 | 61 | 1005.6 |
| 20260506073013 | 12 | 29 | 4.8 | 14.5 | 0.00 | 0.00 | 0.00 | 64 | 1005.9 |
| 20260506071509 | 11 | 23 | 8.0 | 14.5 | 0.00 | 0.00 | 0.00 | 63 | 1005.9 |
| 20260506061557 | 9 | 19 | 3.2 | 8.0 | 0.00 | 0.00 | 0.00 | 71 | 1005.8 |
| 20260506044534 | 6 | 333 | 1.6 | 6.4 | 0.00 | 0.00 | 0.00 | 81 | 1006.2 |
| 20260506043031 | 6 | 330 | 3.2 | 4.8 | 0.00 | 0.00 | 0.00 | 81 | 1006.4 |
| 20260506041529 | 6 | 340 | 0.0 | 6.4 | 0.00 | 0.00 | 0.00 | 81 | 1006.3 |
| 20260506040026 | 6 | 329 | 0.0 | 4.8 | 0.00 | 0.00 | 0.00 | 81 | 1006.2 |
| 20260506034528 | 6 | 350 | 3.2 | 8.0 | 0.00 | 0.00 | 0.00 | 81 | 1006.2 |
| 20260506033021 | 6 | 9 | 1.6 | 6.4 | 0.00 | 0.00 | 0.00 | 82 | 1006.3 |
| 20260506031521 | 6 | 13 | 3.2 | 8.0 | 0.00 | 0.00 | 0.00 | 83 | 1006.3 |
| 20260506030033 | 5 | 333 | 3.2 | 8.0 | 0.00 | 0.00 | 0.00 | 83 | 1006.5 |
| 20260506024537 | 5 | 323 | 1.6 | 8.0 | 0.00 | 0.00 | 0.00 | 83 | 1006.6 |
| 20260506023016 | 5 | 336 | 1.6 | 8.0 | 0.00 | 0.00 | 0.00 | 82 | 1006.6 |
| 20260506021514 | 5 | 325 | 0.0 | 6.4 | 0.00 | 0.00 | 0.00 | 82 | 1006.7 |
| 20260506020014 | 5 | 325 | 3.2 | 6.4 | 0.00 | 0.00 | 0.00 | 81 | 1006.7 |
| 20260506014512 | 5 | 324 | 3.2 | 8.0 | 0.00 | 0.00 | 0.00 | 80 | 1006.6 |
| 20260506013018 | 5 | 355 | 3.2 | 8.0 | 0.00 | 0.00 | 0.00 | 79 | 1006.6 |
| 20260506011511 | 5 | 342 | 1.6 | 8.0 | 0.00 | 0.00 | 0.00 | 77 | 1006.7 |
| 20260506010014 | 5 | 331 | 1.6 | 4.8 | 0.00 | 0.00 | 0.00 | 76 | 1006.8 |
| 20260506004508 | 5 | 324 | 4.8 | 8.0 | 0.00 | 0.00 | 0.00 | 74 | 1006.6 |
| 20260506003006 | 5 | 331 | 0.0 | 4.8 | 0.00 | 0.00 | 0.00 | 72 | 1006.8 |
| 20260506001505 | 5 | 327 | 0.0 | 4.8 | 0.00 | 0.00 | 0.00 | 71 | 1006.9 |
| 20260506000004 | 6 | 327 | 0.0 | 6.4 | 0.00 | 0.00 | 0.00 | 70 | 1007.0 |
| 20260505234504 | 6 | 336 | 0.0 | 4.8 | 0.00 | 0.00 | 0.00 | 69 | 1007.1 |
| 20260505233002 | 6 | 336 | 0.0 | 3.2 | 0.00 | 0.00 | 0.00 | 69 | 1007.0 |
| 20260505231502 | 6 | 336 | 1.6 | 4.8 | 0.00 | 0.00 | 0.00 | 71 | 1007.0 |
| 20260505230107 | 6 | 350 | 0.0 | 4.8 | 0.00 | 0.00 | 0.00 | 73 | 1006.9 |
| 20260505224559 | 6 | 325 | 3.2 | 4.8 | 0.00 | 0.00 | 0.00 | 76 | 1007.0 |
| 20260505223107 | 6 | 333 | 1.6 | 8.0 | 0.00 | 0.00 | 0.00 | 81 | 1007.1 |
| 20260505221551 | 6 | 327 | 0.0 | 4.8 | 0.00 | 0.00 | 0.00 | 84 | 1007.2 |
| 20260505220048 | 6 | 327 | 0.0 | 0.0 | 0.00 | 0.00 | 0.00 | 84 | 1007.4 |
| 20260505214547 | 7 | 327 | 0.0 | 1.6 | 0.00 | 0.00 | 0.00 | 84 | 1007.4 |
| 20260505213055 | 7 | 327 | 0.0 | 0.0 | 0.00 | 0.00 | 0.00 | 84 | 1007.5 |
| 20260505211546 | 7 | 327 | 0.0 | 3.2 | 0.00 | 0.00 | 0.00 | 84 | 1007.5 |
| 20260505210046 | 7 | 327 | 0.0 | 0.0 | 0.00 | 0.00 | 0.00 | 84 | 1007.5 |
| 20260505204545 | 8 | 327 | 0.0 | 0.0 | 0.00 | 0.00 | 0.00 | 82 | 1007.5 |
| 20260505203051 | 8 | 327 | 0.0 | 0.0 | 0.00 | 0.00 | 0.00 | 82 | 1007.6 |
| 20260505201544 | 9 | 327 | 0.0 | 0.0 | 0.00 | 0.00 | 0.00 | 81 | 1007.5 |
| 20260505200044 | 9 | 327 | 0.0 | 0.0 | 0.00 | 0.00 | 0.00 | 81 | 1007.5 |
| 20260505194550 | 10 | 327 | 0.0 | 4.8 | 0.00 | 0.00 | 0.00 | 80 | 1007.6 |
| 20260505193043 | 10 | 207 | 0.0 | 3.2 | 0.00 | 0.00 | 0.00 | 80 | 1007.4 |
| 20260505191542 | 10 | 207 | 0.0 | 3.2 | 0.00 | 0.00 | 0.00 | 79 | 1007.2 |
| 20260505190041 | 11 | 207 | 0.0 | 1.6 | 0.00 | 0.00 | 0.00 | 78 | 1007.1 |
| 20260505184541 | 11 | 207 | 0.0 | 1.6 | 0.00 | 0.00 | 0.00 | 77 | 1007.0 |
| 20260505183039 | 11 | 207 | 1.6 | 3.2 | 0.00 | 0.00 | 0.00 | 76 | 1007.0 |
| 20260505181540 | 12 | 207 | 0.0 | 3.2 | 0.00 | 0.00 | 0.00 | 75 | 1007.0 |
| 20260505180039 | 12 | 207 | 1.6 | 6.4 | 0.00 | 0.00 | 0.00 | 74 | 1007.0 |
| 20260505174546 | 12 | 234 | 3.2 | 8.0 | 0.00 | 0.00 | 0.00 | 73 | 1007.0 |
| 20260505173044 | 13 | 202 | 0.0 | 3.2 | 0.00 | 0.00 | 0.00 | 69 | 1007.0 |
| 20260505171538 | 13 | 202 | 0.0 | 0.0 | 0.00 | 0.00 | 0.00 | 69 | 1007.0 |
| 20260505170039 | 13 | 202 | 0.0 | 1.6 | 0.00 | 0.00 | 0.00 | 69 | 1007.0 |
| 20260505164549 | 13 | 202 | 0.0 | 3.2 | 0.00 | 0.00 | 0.00 | 69 | 1007.1 |
| 20260505163036 | 13 | 202 | 0.0 | 4.8 | 0.00 | 0.00 | 0.00 | 68 | 1007.1 |
| 20260505161537 | 12 | 169 | 0.0 | 3.2 | 0.00 | 0.00 | 0.00 | 69 | 1007.1 |
| 20260505153047 | 12 | 161 | 6.4 | 14.5 | 0.00 | 0.00 | 0.00 | 71 | 1007.1 |
| 20260505151541 | 12 | 107 | 6.4 | 12.9 | 0.00 | 0.00 | 0.00 | 73 | 1007.2 |
| 20260505124526 | 14 | 173 | 4.8 | 16.1 | 0.00 | 0.00 | 0.00 | 68 | 1007.5 |
| 20260505123021 | 14 | 98 | 4.8 | 17.7 | 0.00 | 0.00 | 0.00 | 68 | 1007.6 |
| 20260505121518 | 16 | 123 | 3.2 | 9.7 | 0.00 | 0.00 | 0.00 | 62 | 1007.6 |
| 20260505120017 | 17 | 44 | 4.8 | 12.9 | 0.00 | 0.00 | 0.00 | 49 | 1007.6 |
| 20260505114530 | 16 | 293 | 4.8 | 14.5 | 0.00 | 0.00 | 0.00 | 58 | 1007.6 |
| 20260505113015 | 17 | 322 | 6.4 | 16.1 | 0.00 | 0.00 | 0.00 | 52 | 1007.7 |
| 20260505111512 | 17 | 344 | 6.4 | 16.1 | 0.00 | 0.00 | 0.00 | 54 | 1007.7 |
| 20260505101503 | 15 | 311 | 8.0 | 22.5 | 0.00 | 0.00 | 0.00 | 64 | 1008.0 |
| 20260505100059 | 14 | 302 | 9.7 | 17.7 | 0.00 | 0.00 | 0.00 | 68 | 1008.0 |
| 20260505094606 | 15 | 300 | 14.5 | 20.9 | 0.00 | 0.00 | 0.00 | 68 | 1008.1 |
| 20260505093057 | 13 | 299 | 11.3 | 22.5 | 0.00 | 0.00 | 0.00 | 70 | 1008.2 |
| 20260505091600 | 13 | 324 | 11.3 | 22.5 | 0.00 | 0.00 | 0.00 | 72 | 1008.1 |
| 20260505090100 | 14 | 325 | 14.5 | 24.1 | 0.00 | 0.00 | 0.00 | 70 | 1008.1 |
| 20260505084554 | 13 | 288 | 8.0 | 17.7 | 0.00 | 0.00 | 0.00 | 70 | 1008.1 |
| 20260505083054 | 13 | 286 | 11.3 | 20.9 | 0.00 | 0.00 | 0.00 | 74 | 1008.1 |